Regional Weather Roundup
Issued by NWS

Home | Current Version | Previous Version | Graphics & Text | Print | Product List | Glossary On
Versions: 1 2 3 4 5 6 7 8 9 10 11 12 13 14 15 16 17 18 19 20 21 22 23 24 25 26 27 28 29 30 31 32 33 34 35 36 37 38 39 40 41 42 43 44 45 46 47 48 49 50
000
ASUS43 KMPX 012110
RWRMN
WEATHER ROUNDUP FOR MINNESOTA
NATIONAL WEATHER SERVICE TWIN CITIES/CHANHASSEN MN
400 PM CDT FRI AUG 01 2014


NOTE: "FAIR" INDICATES FEW OR NO CLOUDS BELOW 12,000 FEET WITH NO
SIGNIFICANT WEATHER AND/OR OBSTRUCTIONS TO VISIBILITY. N/A MEANS
CURRENT SKY AND/OR WEATHER CONDITIONS ARE NOT AVAILABLE.

MNZ060>063-068>070-012200-
   Twin Cities Metro

CITY           SKY/WX    TMP DP  RH WIND       PRES   REMARKS
TWIN CITIES    MOSUNNY   87  55  33 W8        30.05S
ST PAUL        MOSUNNY   82  57  42 CALM      30.04F
CRYSTAL        PTSUNNY   85  57  38 SW8       30.03F
BLAINE         MOSUNNY   82  57  42 CALM      30.05F
LAKEVILLE      MOSUNNY   81  63  54 W7        30.07S
EDEN PRAIRIE   SUNNY     86  57  37 NW5       30.04F
SOUTH ST PAUL  CLOUDY    83  56  39 E5        30.04F
LAKE ELMO      FAIR      82  61  47 NW5       30.06F
$$
MNZ001>005-007-008-013>017-022>024-027-028-012200-
   Northwest Minnesota

CITY           SKY/WX    TMP DP  RH WIND       PRES   REMARKS
BEMIDJI        SUNNY     78  53  40 NW8       30.07S
HALLOCK        MOSUNNY   81  59  47 W5        30.06S
ROSEAU         MOSUNNY   81  54  39 NE3       30.07S
WARROAD        SUNNY     75  57  53 E7        30.08S
THIEF RVR FALL MOSUNNY   79  54  41 E6        30.08S
CROOKSTON      MOSUNNY   81  57  44 N6        30.08S
FOSSTON        MOSUNNY   79  61  53 CALM      30.09S
DETROIT LAKES  SUNNY     79  55  44 N5        30.10S
MOORHEAD       SUNNY     81  57  44 NE8       30.07F
PARK RAPIDS    PTSUNNY   79  53  40 N12G18    30.07S
$$
MNZ006-009>011-018-025>026-012200-
   North Central Minnesota

CITY           SKY/WX    TMP DP  RH WIND       PRES   REMARKS
BAUDETTE       SUNNY     79  45  29 N8        30.09S
FLAG ISLAND    SUNNY     77  45  31 CALM      30.06F
INTL FALLS     SUNNY     78  49  35 CALM      30.06F
WASKISH        SUNNY     79  59  50 CALM      30.07S
BIG FORK       MOSUNNY  N/A N/A N/A N8        30.06F
LONGVILLE      SUNNY     79  57  47 W6        30.07S
GRAND RAPIDS   MOSUNNY   79  55  44 W8        30.06S
CRANE LAKE     SUNNY     75  46  35 NW3       30.08R
ORR            SUNNY     79  50  36 NW3       30.04F
COOK           MOSUNNY   79  55  44 N7        30.06F
$$
MNZ012-019>021-037-012200-
   Northeast Minnesota

CITY           SKY/WX    TMP DP  RH WIND       PRES   REMARKS
DULUTH         SUNNY     73  56  54 SE7       30.06F
ELY            CLOUDY    75  52  43 W7        30.06S
HIBBING        MOSUNNY   79  57  46 N3        30.05F
EVELETH        PTSUNNY   77  55  47 CALM      30.07S
DULUTH HARBOR  MOSUNNY   63  55  77 NE5       30.07S
TWO HARBORS    SUNNY     72  52  49 SE5       30.05S
SILVER BAY     SUNNY     70  55  60 SE5       30.06S
GRAND MARAIS     N/A     63  51  65 CALM      30.10R
G MARAIS ARPRT MOSUNNY   66  48  52 SE5       30.11S
$$
MNZ029>031-032-039>041-046>048-054>057-064-012200-
   West Central Minnesota

CITY           SKY/WX    TMP DP  RH WIND       PRES   REMARKS
FERGUS FALLS   MOSUNNY   81  57  44 NW10      30.06S
WHEATON        MOSUNNY   81  61  50 W8        30.08F
MORRIS         MOSUNNY   84  57  39 W6        30.06F
ALEXANDRIA     MOSUNNY   79  58  48 NW8       30.09F
ELBOW LAKE     FAIR      79  61  53 N6        30.07S
WADENA         SUNNY     81  55  41 NW7       30.07S
GLENWOOD       MOSUNNY   82  57  42 NW9       30.08F
APPLETON       SUNNY     86  55  35 W6        30.06F
BENSON         MOSUNNY   82  63  51 NE5       30.07S
ORTONVILLE     MOSUNNY   82  55  39 CALM      30.07F
MADISON        SUNNY     84  61  45 W6        30.08S
WILLMAR        FAIR      82  57  42 W10       30.08S
$$
MNZ033>034-036-042>043-049>051-058-059-012200-
   Central Minnesota

CITY           SKY/WX    TMP DP  RH WIND       PRES   REMARKS
ST CLOUD       PTSUNNY   87  57  35 VRB3      30.04F
SAUK CENTRE    MOCLDY    82  60  47 NE5       30.07S
PAYNESVILLE    MOSUNNY   82  52  35 NW3       30.07F
AITKIN         MOSUNNY   82  61  47 NW3       30.04F
PINE RIVER     MOSUNNY   81  57  44 NW6       30.09S
BRAINERD       SUNNY     79  58  48 VRB5      30.07S
STAPLES        SUNNY     82  50  32 W7        30.06S
LONG PRAIRIE   PTSUNNY   79  59  50 NW7       30.07S
LITTLE FALLS   MOSUNNY   79  59  50 CALM      30.06S
LITCHFIELD     MOSUNNY   81  64  57 CALM      30.07F
BUFFALO        MOSUNNY   83  55  38 CALM      30.06F
MAPLE LAKE     MOSUNNY   81  62  51 CALM      30.06F
$$
MNZ037-044-045-052-053-012200-
   East Central Minnesota

CITY           SKY/WX    TMP DP  RH WIND       PRES   REMARKS
PRINCETON      PTSUNNY   82  63  51 W3        30.05F
MORA           LGT RAIN  73  61  64 N5        30.07F
CAMBRIDGE      MOSUNNY   84  63  48 CALM      30.03F
RUSH CITY      MOSUNNY   82  57  43 CALM      30.05F
MOOSE LAKE     SUNNY     81  55  41 CALM      30.03F
HINCKLEY       FAIR      81  61  50 SW6       30.05F
CLOQUET        PTSUNNY   75  55  50 SW6       30.06S
MCGREGOR       MOSUNNY   79  59  50 CALM      30.05F
$$
MNZ071>073-080-081-089-090-097-098-012200-
   Southwest Minnesota

CITY           SKY/WX    TMP DP  RH WIND       PRES   REMARKS
MONTEVIDEO     PTSUNNY   84  61  45 E6        30.08S
GRANITE FALLS  SUNNY     81  60  48 NW5       30.09S
CANBY          MOSUNNY   82  55  39 CALM      30.09F
MARSHALL       SUNNY     82  55  39 CALM      30.08F
REDWOOD FALLS  SUNNY     84  56  38 VRB6      30.07F
OLIVIA         PTSUNNY   82  57  42 W7        30.07S
PIPESTONE      MOSUNNY   81  55  41 CALM      30.11F
WINDOM         MOSUNNY   81  57  44 CALM      30.10F
WORTHINGTON    MOSUNNY   79  54  41 CALM      30.12F
JACKSON        SUNNY     79  55  44 NW3       30.11F
TRACY          SUNNY     82  58  43 SE3       30.10F
SLAYTON        SUNNY     80  51  37 CALM      30.12F
$$
MNZ065>067-074>077-082>085-091>093-012200-
   South Central Minnesota

CITY           SKY/WX    TMP DP  RH WIND       PRES   REMARKS
MANKATO        MOSUNNY   81  55  41 NW7       30.08F
NEW ULM        SUNNY     81  57  44 CALM      30.07F
ST JAMES       SUNNY     86  55  35 N3        30.09S
FAIRMONT       SUNNY     81  48  32 CALM      30.09F
GLENCOE        SUNNY     83  56  39 NW5       30.06F
FARIBAULT      SUNNY     84  52  32 W6        30.08S
OWATONNA       MOSUNNY   81  55  41 SW5       30.08F
WASECA         MOSUNNY   79  54  41 NW3       30.10F
ALBERT LEA     SUNNY     82  52  34 W5        30.09S
$$
MNZ078>079-086>088-094>096-012200-
   Southeast Minnesota

CITY           SKY/WX    TMP DP  RH WIND       PRES   REMARKS
ROCHESTER      MOSUNNY   80  59  48 VRB3      30.09F
RED WING       MOSUNNY   84  54  34 W7        30.04S
STANTON        MOSUNNY   83  57  40 W7        30.05F
DODGE CENTER   PTSUNNY   81  57  44 SW6       30.09F
WINONA         MOSUNNY   81  55  41 W5        30.05S
AUSTIN         MOSUNNY   81  54  39 W7        30.08F
PRESTON        MOSUNNY   79  63  58 W7        30.09F
$$
ABBREVIATIONS USED IN REMARKS
   TC - TEMPERATURES IN CELSIUS
  WCI - WIND CHILL INDEX
   HX - HEAT INDEX
  VSB - VISIBILITY
$$


USA.gov is the U.S. government's official web portal to all federal, state and local government web resources and services.